Location: PACMO
(41.3967°N, 90.3760°W)
Time: 17:27:26
(UTC-05:00)

Daily predictions for brighter satellites

Satellite Brightness Start Highest point End
(mag) Time Altitude Azimuth Time Altitude Azimuth Time Altitude Azimuth
Okean 1 3.3 20:51:00 10° S 20:55:02 73° E 20:59:05 10° NNE
Cosmos 1570 Rocket 4.1 20:51:17 10° SSW 20:56:37 81° ESE 21:02:00 10° NNE
Centaur D-1A AC-31 3.1 20:50:55 10° WSW 20:57:07 20° SSW 21:00:10 10° SSE
NOSS 3-2 (A) 3.5 20:52:43 10° SSW 20:58:35 89° NW 21:05:09 10° NE
USA 234 3.4 20:52:29 10° NE 20:58:53 53° SE 21:05:16 10° SSW
Cosmos 304 Rocket 4.0 20:54:59 10° SSW 20:59:48 81° WNW 21:04:38 10° NNE
Lacrosse 5 rocket 3.4 20:59:17 10° NNW 21:02:36 20° NNE 21:05:48 10° ENE
Timation 2 Rocket 3.9 20:56:52 10° S 21:02:43 63° ESE 21:08:43 10° NNE
NOSS 3-2 (C) 3.4 20:58:49 10° SSW 21:04:39 74° ESE 21:11:08 10° NE
Meteor 2-4 Rocket 4.5 21:00:23 10° SSE 21:05:06 31° E 21:09:57 10° NNE
Cosmos 1939 Rocket 3.6 21:01:30 10° S 21:05:32 58° W 21:09:39 10° NNW
Meteor 1-18 Rocket 4.5 20:59:43 10° S 21:05:34 84° W 21:11:32 10° N
Abrixas rocket 2.4 21:07:53 10° WSW 21:11:06 72° NNW 21:14:19 10° ENE
ERS-1 Rocket 4.3 21:07:55 10° ESE 21:11:57 25° ENE 21:16:01 10° NNE
ISS -1.9 21:09:26 10° W 21:12:26 33° NNW 21:15:27 10° NE
Resurs 1-3 4.1 21:08:48 10° S 21:13:07 63° WSW 21:17:29 10° NNW
Cosmos 1898 Rocket 3.5 21:12:01 10° NNW 21:17:20 79° ENE 21:22:40 10° SSE
USA 186 4.0 21:16:50 10° SSW 21:19:34 26° W 21:22:27 10° NW
NOAA 11 4.3 21:14:50 10° SSE 21:20:19 82° WSW 21:25:48 10° NNW
ARGOS 3.6 21:15:19 10° SE 21:20:26 48° ENE 21:25:38 10° N
Cosmos 2322 Rocket 2.2 21:15:30 10° NNW 21:21:08 70° ENE 21:26:19 12° SSE
Tiangong 2 1.1 21:18:02 10° W 21:21:11 83° N 21:24:20 10° ENE
Cosmos 1814 Rocket 4.1 21:16:31 10° S 21:21:36 54° ESE 21:26:47 10° NNE
H-2A R/B 2.6 21:19:42 12° SE 21:23:51 39° ENE 21:28:31 10° N
Cosmos 1455 Rocket 3.8 21:19:59 10° N 21:24:01 35° ENE 21:27:13 15° SE
CENTAUR R/B 2.7 21:18:55 10° S 21:24:28 46° ESE 21:30:48 10° NE
Cosmos 1340 Rocket 3.5 21:25:14 11° SSE 21:28:40 35° E 21:32:24 10° NNE
Cosmos 292 Rocket 4.1 21:26:01 10° S 21:30:29 42° ESE 21:34:59 10° NNE
SL-16 R/B 2.2 21:24:52 10° NNW 21:30:35 88° ENE 21:35:43 13° SSE
Cosmos 990 Rocket 4.0 21:27:58 10° NNW 21:33:13 79° ENE 21:37:44 14° SSE
Shenzhou-11 Module 1.9 21:30:58 10° WNW 21:33:57 82° N 21:36:04 18° E
Cosmos 1975 Rocket 3.1 21:30:25 10° S 21:34:45 83° W 21:39:05 10° N
ATLAS 3B R/B 4.1 21:32:05 10° WSW 21:38:49 42° NW 21:45:19 10° NNE
Cosmos 1242 Rocket 3.0 21:36:16 10° NNW 21:39:52 60° W 21:43:20 11° S
Meteor 2-20 4.5 21:34:17 10° N 21:40:26 71° E 21:45:56 13° SSE
Meteor 1-13 Rocket 4.3 21:34:52 10° S 21:40:45 77° E 21:46:43 10° NNE
Aureole 2 Rocket 2.5 21:39:12 10° N 21:42:01 40° ENE 21:43:07 26° ESE
Helios 1A 4.2 21:41:57 18° ESE 21:44:07 28° ENE 21:47:41 10° N
MetOp-B 4.1 21:44:58 16° SSE 21:49:15 73° ENE 21:54:37 10° N
Cosmos 1544 Rocket 3.5 21:47:00 10° N 21:51:26 72° E 21:54:28 20° SSE
Cosmos 2084 4.3 21:49:21 10° SW 21:53:32 51° NW 21:57:33 10° NNE
Cosmos 2150 Rocket 4.0 21:49:45 10° NNW 21:55:11 85° ENE 21:58:51 20° SSE
CZ-4C R/B 3.9 21:50:45 10° NNW 21:57:09 35° NE 22:03:19 13° ESE
SL-08 RB Rocket 3.7 21:58:56 21° SSE 22:02:00 90° W 22:06:36 10° NNW
SJ 16-02 2.0 21:59:11 10° N 22:03:24 40° ENE 22:05:18 26° ESE
Resurs 01 Rocket 4.1 22:02:12 10° SW 22:05:16 18° W 22:08:22 10° NW
Cosmos 1536 Rocket 3.5 22:05:18 22° S 22:08:06 68° E 22:12:33 10° NNE
Cosmos 2360 Rocket 2.2 22:05:13 10° NNW 22:10:53 78° ENE 22:14:04 27° SSE
Cosmos 540 Rocket 3.4 22:06:54 13° S 22:11:25 66° ESE 22:16:34 10° NNE
Helios 1B rocket 3.1 22:09:18 10° NNE 22:13:08 36° E 22:13:58 33° SE
CZ-2C R/B 4.3 22:10:34 10° NE 22:14:11 17° E 22:14:47 17° E
Cosmos 2219 Rocket 3.6 22:10:03 10° N 22:14:42 26° NE 22:17:36 17° E
Cosmos 1937 Rocket 4.4 22:10:10 10° NNW 22:15:01 43° WSW 22:18:50 16° SSW
Landsat 7 4.3 22:14:41 29° SE 22:16:39 47° ENE 22:21:13 10° N
Nadezhda 4 Rocket 4.2 22:14:21 10° N 22:20:35 59° E 22:23:53 29° SSE
IGS 5A 4.3 22:21:30 31° ESE 22:22:34 37° ENE 22:26:25 10° N
Cosmos 841 Rocket 4.2 22:20:06 10° SW 22:25:14 55° WNW 22:30:25 10° N
SPOT 5 2.6 22:28:40 38° SSE 22:30:22 85° ENE 22:34:58 10° NNW
Terra 2.3 22:33:59 36° ESE 22:35:24 47° ENE 22:39:59 10° N
Meteor 1-23 Rocket 4.4 22:30:58 15° SSW 22:35:40 70° W 22:41:14 10° N
Cosmos 372 Rocket 3.9 22:32:01 10° NNW 22:37:10 80° ENE 22:39:00 41° SSE
Cosmos 2333 Rocket 3.2 22:32:03 10° N 22:37:14 34° ENE 22:39:38 25° E
CARTOSAT-1 3.7 22:39:20 46° ESE 22:40:17 59° ENE 22:44:33 10° N
COSMOS 2428 3.0 22:34:52 10° NNW 22:40:28 56° ENE 22:42:36 35° ESE
USA 234 4.2 22:35:34 10° NE 22:41:50 50° NNW 22:48:07 10° WSW
Lacrosse 5 rocket 1.2 22:38:03 10° NW 22:42:22 83° SW 22:43:05 59° SSE
CZ-2C R/B 3.7 22:41:20 33° ESE 22:43:09 45° ENE 22:48:28 10° N
BREEZE M DEB (TANK) 3.3 22:40:32 10° WNW 22:47:17 37° SW 22:47:56 34° SSW
Abrixas rocket 4.5 22:45:08 10° WNW 22:47:52 25° N 22:50:37 10° NE
Spot 1 3.8 22:47:20 59° SE 22:48:02 76° ENE 22:52:06 10° N
ISS -0.7 22:47:46 10° NW 22:49:40 14° N 22:51:34 10° NNE
ERS-1 Rocket 4.0 22:47:46 21° SSW 22:50:31 38° W 22:55:13 10° NNW
Cosmos 1025 Rocket 3.0 22:51:30 49° SSW 22:52:38 86° W 22:57:02 10° N
Cosmos 2034 Rocket 4.4 22:48:17 16° SSW 22:53:08 60° W 22:59:15 10° N
Tiangong 2 1.9 22:54:52 10° WNW 22:57:22 50° WNW 22:57:22 50° WNW
Cosmos 2297 Rocket 3.6 22:59:43 21° E 22:59:43 21° E 23:03:09 10° NE
Cosmos 1606 Rocket 4.0 22:54:39 10° N 22:58:58 47° E 22:59:18 46° E
SPOT 1/Viking Rocket 4.0 22:57:27 33° SSW 22:59:31 55° W 23:04:36 10° NNW
Cosmos 2227 Rocket 3.4 23:02:54 25° E 23:02:54 25° E 23:06:55 10° NE
H-2A R/B 3.8 23:00:19 14° SW 23:03:24 23° W 23:07:24 10° NW
Cosmos 2322 4.1 22:58:08 10° NNW 23:03:42 54° WSW 23:05:41 37° SSW
Cosmos 2322 Rocket 4.4 23:01:17 10° WNW 23:04:28 16° W 23:07:40 10° SW
Meteor 1-29 3.2 23:01:45 10° N 23:05:12 64° WNW 23:05:14 64° W
Cosmos 2237 Rocket 3.3 23:04:01 10° N 23:09:12 34° ENE 23:11:02 28° E
YAOGAN 11 4.0 23:09:09 69° SSE 23:09:42 85° ENE 23:14:15 10° NNW
Cosmos 192 4.3 23:11:43 57° ESE 23:11:52 58° ESE 23:16:41 10° NNE
Cosmos 783 Rocket 4.4 23:10:53 48° SSW 23:12:23 86° ESE 23:17:43 10° NNE
Cosmos 1125 Rocket 3.9 23:07:32 10° NNW 23:12:39 54° WSW 23:13:59 42° SSW
Cosmos 1627 Rocket 4.4 23:07:59 10° N 23:14:09 72° E 23:15:50 49° SSE
Cosmos 1066 Rocket 4.2 23:12:12 39° SSW 23:14:14 72° W 23:19:42 10° N
CENTAUR R/B 4.0 23:09:37 10° WSW 23:15:16 37° NW 23:21:43 10° NNE
Cosmos 2195 Rocket 4.4 23:09:09 10° N 23:15:19 78° E 23:17:05 49° SSE
Cosmos 1634 Rocket 3.9 23:17:53 43° S 23:20:12 90° ESE 23:26:34 10° N
Meteor 1-21 4.3 23:24:50 54° ESE 23:25:28 57° E 23:30:58 10° NNE
H-2A R/B 4.3 23:26:57 14° ENE 23:27:23 14° ENE 23:29:36 10° NNE
Mayak 0.9 23:26:05 10° NE 23:27:37 16° ENE 23:27:37 16° ENE
Cosmos 1766 3.5 23:27:12 10° N 23:30:44 68° N 23:30:44 68° N
Meteor 1-22 Rocket 3.9 23:27:32 10° NNW 23:32:54 83° W 23:33:40 66° S
Cosmos 2219 3.3 23:30:45 38° SW 23:33:01 74° WNW 23:38:49 10° NNE
SAR-Lupe-4 4.4 23:34:50 47° N 23:34:50 47° N 23:37:31 10° N
Cosmos 1892 Rocket 3.5 23:34:27 80° NNE 23:34:27 80° NNE 23:38:35 10° N
Cosmos 1544 4.4 23:36:36 10° NNW 23:39:37 35° WNW 23:39:37 35° WNW
Cosmos 773 Rocket 4.0 23:41:37 62° E 23:41:37 62° E 23:46:32 10° NNE
SJ 16-02 3.4 23:38:39 10° NW 23:41:38 18° W 23:42:18 17° WSW
Okean 1-7 Rocket 4.5 23:43:20 39° WSW 23:44:06 43° WNW 23:48:28 10° N
CZ-4C R/B 3.0 23:38:58 10° NW 23:46:13 65° WSW 23:48:29 47° S
Cosmos 1758 4.3 23:43:18 10° N 23:46:29 40° NE 23:46:29 40° NE
Cosmos 2228 3.2 23:45:57 10° NNW 23:49:50 67° NW 23:49:50 67° NW
COSMOS 2455 2.8 23:50:51 61° SE 23:51:08 62° ESE 23:57:06 10° NE
Cosmos 2360 Rocket 4.3 23:51:18 10° WNW 23:54:08 14° W 23:55:51 12° WSW
Cosmos 1726 Rocket 4.1 23:50:19 10° NNW 23:54:26 50° W 23:54:26 50° W
